Vertical_Velocity
-1 -4 -6 -2 -10 -5 -3 1 -1 -2 -0 -1 2 1 2 1 -1 2 4 -6 2 -0 -1 3 4 3 3 -2 -1 -11 3 -8 -15 -4 7 0 -6 -3 -4 -6 4 3 3 -0 4
-6 0 -4 -11 -2 0 1 -2 4 -2 -2 -1 2 2 -0 -2 -1 5 3 -11 4 3 -3 3 4 4 -1 3 -0 11 -10 -19 14 15 -5 6 -2 1 -8 -6 -5 2 1 2 1
-0 -3 -1 1 -1 -2 -3 -1 0 -2 -2 2 3 -1 2 0 -3 0 1 -0 5 0 -2 2 4 1 -2 8 -2 -7 5 21 -1 12 -2 3 -1 -4 -8 -23 -11 4 3 -2 2
-4 -1 1 1 -1 3 1 2 -2 -3 1 -3 1 3 0 -2 -6 1 7 6 2 5 5 6 5 0 -1 -16 1 -3 -1 17 -9 22 -6 1 -3 -0 -1 18 1 2 7 -0 1
1 -1 -4 -0 -3 -2 2 -3 -2 -3 -2 -1 -2 1 1 0 1 2 9 6 -1 -1 0 5 -2 12 -2 -7 6 4 4 2 5 -0 -6 -2 -6 7 8 6 -0 -0 -0 -1 3
-6 -1 -4 0 1 -3 -0 3 -1 -3 -3 -2 1 0 0 -8 0 2 1 5 2 6 -1 4 2 10 5 1 4 -12 1 1 10 4 13 0 -0 2 1 3 5 6 5 5 -1
-1 -1 4 -2 -4 -1 -1 1 -4 -6 -1 -3 1 -2 0 1 -2 3 4 -1 -6 3 0 1 3 -1 9 10 -2 -2 2 3 2 -8 -11 6 4 -22 1 -0 1 7 3 4 0
-2 4 -5 1 -1 -3 -6 1 -1 -5 -1 0 -2 -3 4 -2 1 -4 2 4 -2 -3 7 -2 1 -6 4 5 5 -0 15 9 -8 6 -14 26 -23 11 -1 1 -2 6 2 -0 -3
-1 -3 -1 -3 -4 1 3 1 2 -5 -4 -2 1 -3 1 0 1 -1 -5 -3 0 -7 -4 15 2 11 13 4 9 9 -9 -4 7 -2 4 7 -1 -6 -4 3 -1 3 0 4 0
-4 -1 -10 -6 -4 -7 1 -1 -4 2 -7 -1 -1 -0 0 -0 2 1 -5 -3 1 -2 1 2 17 4 22 -5 -8 -5 -0 6 -2 -4 6 -0 -20 22 -1 1 3 3 2 4 -1
-5 -2 6 -3 -0 -4 -4 -2 3 -3 3 -12 -5 0 0 1 0 -4 0 -1 2 3 0 1 3 -15 0 1 -3 5 9 -0 1 8 8 -8 3 1 5 2 -2 -10 -9 5 2
0 -2 -3 -3 -2 -7 -7 -8 -3 -0 -9 -5 -1 -1 -3 -0 -3 0 -2 -1 2 -0 8 6 -16 5 5 12 0 7 1 -2 13 10 4 6 2 3 -21 -1 -5 -1 -4 4 3
-0 -4 -2 -3 -2 -6 -4 -3 -3 1 -4 -2 -2 2 -4 -4 1 -2 -1 2 1 3 0 -1 -2 -1 5 5 0 10 -4 6 -4 -1 11 6 -3 14 -1 -2 0 -3 2 -1 8
-6 2 -3 -3 -1 0 -6 1 -2 1 -2 -1 -1 -2 -2 -3 -2 -2 1 2 -2 -1 1 -5 -2 -6 9 -8 8 -5 -1 5 3 6 -2 5 -10 -11 -7 -6 -2 4 -9 -10 -0
1 -2 -4 -4 0 -2 -2 -5 0 0 1 -0 -8 -0 4 4 -2 -2 -1 -0 -1 6 -1 0 3 1 1 -7 10 -17 -4 4 0 8 5 -0 2 -28 2 3 -12 -0 -22 -6 -4
-2 -1 1 3 -2 -1 -1 -1 -0 -3 -0 -4 -2 0 -2 1 -1 0 5 0 3 -1 -3 -5 -1 -3 -11 8 -5 6 27 2 5 9 7 -8 -3 -10 -8 -45 12 7 3 2 -5
-3 -11 -6 2 -5 1 -4 -4 0 -3 0 -3 -6 -4 5 -11 -0 -0 0 -1 3 2 1 -2 -3 -6 2 2 8 -1 13 6 9 6 -4 0 13 -24 9 -4 1 -4 -1 -1 4
-5 0 -7 -9 1 -3 1 -5 1 -1 -0 -1 -1 5 -0 -9 -0 2 -2 4 -5 5 -1 1 6 -5 -9 -6 -11 -14 -1 -5 -4 -3 -5 -1 -4 -28 -12 7 2 6 7 15 -3
-0 -4 1 -1 -7 -4 2 -0 -1 0 -2 -3 -4 1 2 -3 3 -4 -0 5 8 27 1 2 -4 1 -0 -7 3 6 -3 1 -3 -7 14 -8 1 -7 -4 1 -4 -1 1 -6 -14
-5 -3 -4 -6 -5 1 -2 -1 -0 -1 -3 -1 4 0 -1 -5 -3 2 -8 -3 -0 12 14 11 1 0 4 10 14 8 11 5 -0 3 3 1 -1 1 -1 -6 -1 -8 -2 5 10
-1 -10 -6 -2 2 -0 -2 -0 2 1 -2 -1 1 -0 1 -1 1 -2 0 1 -3 -6 1 12 3 3 5 -10 -11 -1 15 5 1 7 3 1 1 -3 -3 -1 5 4 3 1 1
-4 -5 -9 -6 0 1 -1 -0 0 2 2 -2 -0 3 2 -2 -3 1 -0 6 -1 2 -4 9 7 1 -12 -7 15 1 -6 5 -3 -1 -2 1 4 -3 -1 0 -1 0 2 1 2
-8 -4 -5 -5 -6 -2 4 2 -2 -1 -0 0 1 3 3 0 -5 3 -2 11 5 -3 3 2 8 3 18 5 11 3 -6 -1 4 -2 1 3 2 -2 2 0 0 3 1 2 3
-6 -2 -6 -1 -4 -7 -6 -0 1 2 0 0 0 -1 0 1 5 -9 -6 -10 4 0 12 5 9 1 2 -8 -9 1 -1 -4 1 -0 -5 2 2 2 3 1 0 -0 1 -1 1
-5 -1 -6 -7 -0 -0 -4 -1 -3 -4 6 1 2 6 2 -4 -4 -1 2 2 5 2 2 -0 3 3 -1 7 2 -9 -6 -1 2 0 -9 -9 1 6 3 4 4 2 3 -0 1
-7 -2 2 1 -3 -1 1 -0 -4 1 -1 5 0 3 5 -1 5 -18 -3 14 1 0 -6 1 -4 4 7 2 11 -0 7 6 -9 6 12 -3 -7 7 7 7 5 2 2 2 2
-6 -4 3 -1 0 -1 0 0 -0 -5 4 1 -4 -7 4 1 2 5 3 4 -4 -5 -1 -4 3 -1 4 7 3 7 4 13 -2 -1 13 -5 6 22 2 4 0 4 5 4 6
Height
3097 3091 3086 3082 3077 3072 3067 3063 3058 3054 3049 3044 3040 3036 3033 3031 3030 3031 3034 3035 3036 3038 3041 3044 3048 3051 3054 3057 3061 3063 3064 3062 3068 3075 3083 3082 3085 3089 3094 3095 3099 3101 3104 3108 3112
3092 3086 3081 3076 3072 3066 3062 3056 3051 3047 3042 3036 3032 3029 3026 3023 3020 3025 3026 3022 3026 3031 3033 3038 3040 3043 3047 3051 3054 3055 3053 3055 3068 3074 3077 3079 3081 3085 3091 3092 3094 3097 3101 3105 3108
3086 3081 3076 3071 3066 3061 3056 3051 3046 3040 3034 3029 3026 3022 3019 3015 3013 3015 3014 3014 3017 3021 3026 3029 3033 3037 3040 3044 3047 3049 3046 3057 3061 3068 3073 3075 3077 3080 3083 3088 3090 3095 3100 3102 3105
3083 3078 3073 3067 3061 3055 3050 3044 3040 3034 3027 3023 3020 3016 3012 3010 3013 3011 3011 3009 3009 3013 3019 3021 3027 3029 3033 3035 3040 3044 3046 3049 3058 3060 3066 3071 3074 3076 3078 3083 3088 3093 3096 3100 3103
3080 3075 3068 3062 3057 3051 3046 3040 3034 3027 3022 3018 3015 3011 3006 3004 3006 3006 3005 3006 3005 3006 3008 3013 3019 3024 3025 3031 3037 3038 3044 3048 3052 3055 3060 3067 3070 3074 3076 3080 3084 3088 3091 3095 3099
3076 3070 3063 3058 3052 3047 3041 3034 3028 3023 3017 3013 3009 3005 3001 3000 3000 2999 2997 2997 2998 3001 3002 3006 3013 3019 3023 3024 3029 3033 3038 3043 3045 3051 3053 3059 3064 3068 3072 3075 3079 3082 3085 3091 3095
3072 3065 3059 3054 3047 3042 3037 3028 3022 3018 3011 3006 3003 3000 2998 2998 2994 2994 2993 2992 2993 2993 2998 3002 3007 3011 3017 3021 3022 3029 3033 3038 3040 3045 3047 3055 3058 3058 3067 3070 3074 3077 3081 3085 3090
3067 3060 3055 3049 3044 3038 3031 3024 3016 3013 3006 3002 2999 2997 2995 2993 2991 2989 2989 2987 2987 2989 2995 2998 3000 3005 3008 3016 3018 3022 3029 3030 3032 3039 3042 3045 3045 3055 3059 3065 3070 3073 3077 3081 3085
3063 3057 3051 3045 3039 3033 3026 3020 3013 3008 3002 2999 2997 2995 2995 2993 2992 2989 2987 2987 2985 2984 2988 2990 2996 2997 3005 3010 3017 3017 3017 3021 3029 3032 3038 3037 3040 3050 3054 3060 3065 3069 3072 3076 3080
3059 3054 3048 3042 3035 3028 3022 3015 3012 3007 3001 2997 2996 2996 2994 2993 2990 2988 2985 2983 2983 2982 2984 2986 2988 2992 2996 3004 3002 3008 3014 3018 3022 3028 3031 3034 3037 3042 3047 3054 3060 3064 3067 3071 3076
3056 3051 3044 3037 3031 3025 3020 3012 3007 3001 2998 2996 2997 2994 2992 2990 2988 2984 2981 2980 2980 2981 2982 2983 2985 2986 2992 2998 3005 3011 3013 3015 3019 3025 3028 3028 3032 3039 3043 3048 3053 3059 3064 3067 3072
3053 3048 3042 3035 3028 3022 3017 3011 3007 3002 2998 2996 2995 2993 2990 2986 2983 2982 2980 2979 2978 2978 2980 2982 2979 2986 2991 2995 3001 3004 3008 3011 3017 3021 3023 3025 3028 3035 3037 3044 3047 3053 3059 3063 3067
3051 3045 3039 3031 3027 3021 3015 3010 3005 3001 2999 2996 2994 2991 2988 2985 2980 2980 2978 2976 2976 2976 2977 2978 2981 2985 2986 2988 2994 2995 3000 3006 3011 3016 3020 3023 3024 3026 3031 3037 3041 3045 3052 3056 3063
3048 3042 3035 3030 3024 3018 3014 3010 3005 3000 2997 2997 2993 2989 2986 2982 2980 2977 2974 2975 2972 2974 2975 2974 2974 2976 2979 2981 2989 2992 2995 3005 3008 3012 3013 3018 3017 3020 3025 3029 3033 3037 3042 3048 3056
3045 3039 3032 3024 3022 3017 3013 3009 3004 3001 2999 2996 2992 2988 2985 2983 2979 2975 2972 2969 2968 2969 2972 2970 2969 2971 2974 2977 2984 2986 2986 2996 3003 3008 3010 3014 3016 3010 3017 3022 3024 3029 3035 3042 3050
3043 3037 3031 3026 3021 3017 3012 3008 3004 3003 2998 2996 2991 2986 2984 2980 2976 2973 2970 2967 2966 2966 2966 2965 2965 2966 2968 2974 2979 2980 2985 2991 2998 3003 2999 3005 3013 3008 3008 3006 3017 3025 3031 3038 3046
3042 3036 3027 3022 3019 3014 3011 3008 3006 3004 3003 2998 2990 2985 2982 2978 2975 2971 2968 2965 2966 2965 2963 2962 2961 2962 2965 2970 2975 2977 2983 2984 2992 2997 2995 3000 3007 3000 3003 3007 3013 3018 3024 3032 3039
3039 3033 3028 3022 3017 3013 3009 3007 3005 3003 3000 2996 2989 2985 2982 2979 2975 2970 2966 2966 2964 2962 2962 2962 2959 2958 2961 2965 2971 2973 2978 2977 2979 2988 2993 2997 2995 2993 2997 3001 3007 3014 3020 3028 3033
3037 3030 3023 3020 3016 3013 3011 3007 3006 3003 3001 2995 2989 2985 2982 2981 2978 2970 2967 2965 2964 2960 2962 2958 2956 2953 2956 2961 2969 2972 2975 2984 2986 2987 2985 2989 2988 2988 2991 2996 3001 3005 3012 3019 3029
3035 3029 3023 3017 3012 3010 3010 3007 3005 3002 2999 2996 2993 2988 2984 2980 2976 2973 2968 2965 2962 2959 2956 2955 2954 2951 2953 2960 2965 2967 2977 2984 2987 2982 2978 2983 2984 2981 2984 2988 2994 2999 3005 3012 3022
3033 3025 3021 3017 3014 3010 3007 3005 3003 3001 2998 2997 2993 2989 2986 2981 2977 2973 2970 2967 2961 2957 2954 2953 2953 2950 2952 2952 2956 2964 2968 2975 2983 2981 2976 2975 2977 2978 2981 2984 2991 2995 3001 3007 3014
3032 3025 3022 3018 3016 3010 3008 3005 3004 3000 2998 2995 2993 2989 2986 2981 2975 2973 2970 2968 2964 2958 2952 2949 2948 2945 2944 2947 2956 2962 2964 2969 2973 2978 2978 2979 2978 2976 2979 2983 2987 2992 2996 3003 3010
3029 3022 3017 3013 3013 3012 3011 3007 3004 3000 2998 2995 2992 2990 2986 2981 2977 2973 2968 2965 2962 2957 2953 2949 2944 2943 2943 2950 2954 2958 2961 2967 2971 2972 2975 2975 2977 2976 2977 2979 2984 2989 2995 3001 3006
3026 3020 3015 3012 3010 3011 3009 3007 3005 3002 2998 2995 2991 2988 2983 2979 2977 2971 2968 2961 2960 2956 2952 2945 2944 2942 2939 2940 2944 2952 2959 2965 2969 2971 2973 2977 2977 2976 2976 2978 2982 2987 2992 2998 3003
3025 3021 3015 3013 3008 3007 3006 3004 3003 3000 2998 2994 2991 2988 2983 2977 2972 2970 2965 2960 2958 2955 2951 2947 2944 2941 2937 2940 2945 2950 2957 2961 2966 2970 2972 2980 2978 2977 2978 2979 2982 2986 2990 2995 3001
3022 3019 3015 3010 3007 3004 3002 3000 3000 2998 2996 2992 2989 2985 2983 2978 2975 2966 2964 2962 2956 2954 2951 2948 2944 2940 2938 2940 2946 2951 2956 2961 2966 2968 2973 2977 2981 2981 2981 2982 2983 2985 2989 2993 2998
3019 3016 3012 3011 3007 3004 3000 2998 2997 2995 2992 2990 2986 2981 2979 2976 2971 2966 2962 2959 2956 2954 2951 2949 2946 2941 2940 2943 2948 2956 2958 2963 2967 2970 2974 2977 2983 2985 2984 2984 2985 2985 2987 2991 2996